Terminal Aerodrome Forecast
Issued by NWS

Current Version | Previous Version | Graphics & Text | Print | Product List | Glossary On
Versions: 1 2 3 4 5 6 7 8 9 10 11 12 13 14 15 16 17 18 19 20 21 22 23 24 25 26 27 28 29 30 31 32 33 34 35 36
000
FTUS41 KRNK 112339
TAFLWB
TAF
KLWB 112339Z 1200/1224 00000KT P6SM BKN060
     FM120300 00000KT P6SM SCT060
     FM120900 00000KT 5SM BR SCT001
      TEMPO 1209/1213 1SM BR VV007
     FM121400 VRB03KT P6SM BKN045=

USA.gov is the U.S. government's official web portal to all federal, state and local government web resources and services.